{"data":{"norad_id":68009,"epoch":"2026-05-24T22:17:19.110624Z","epoch_age_seconds":91243,"freshness":"FRESH","line1":"1 68009U 26039Z   26144.92869341  .00014730  00000+0  54331-3 0  9995","line2":"2 68009  43.0086 338.3246 0003335 251.4921 108.5569 15.27603152 13362","mean_motion":15.27603152,"eccentricity":0.0003335,"inclination_deg":43.0086,"raan_deg":338.3246,"arg_perigee_deg":251.4921,"mean_anomaly_deg":108.5569,"bstar":0.00054331,"rev_number":1336,"period_min":94.265320028614,"perigee_km":480.69158905504,"apogee_km":485.26795394163,"semimajor_km":6861.1167714983,"source":"CELESTRAK","updated_at":"2026-05-25T13:38:21.802616Z"}}